Time,TemperatureF,DewpointF,PressureIn,WindDirection,WindDirectionDegrees,WindSpeedMPH,WindSpeedGustMPH,Humidity,HourlyPrecipIn,Conditions,Clouds,dailyrainin,SoftwareType,DateUTC
2013-01-04 00:00:00,26.9,19.1,30.42,WSW,256,0.0,6.0,72,0.00,,,0.00,VWS V14.01,2013-01-04 05:00:00,
2013-01-04 00:04:00,26.9,19.1,30.42,WSW,256,0.0,6.0,72,0.00,,,0.00,VWS V14.01,2013-01-04 05:04:00,
2013-01-04 00:09:00,26.9,19.4,30.42,WSW,256,0.0,6.0,73,0.00,,,0.00,VWS V14.01,2013-01-04 05:09:00,
2013-01-04 00:10:00,26.9,19.4,30.42,WSW,256,0.0,6.0,73,0.00,,,0.00,VWS V14.01,2013-01-04 05:10:00,
2013-01-04 00:14:00,26.9,19.4,30.42,WSW,256,0.0,6.0,73,0.00,,,0.00,VWS V14.01,2013-01-04 05:14:00,
2013-01-04 00:19:00,26.9,19.4,30.42,WSW,256,0.0,6.0,73,0.00,,,0.00,VWS V14.01,2013-01-04 05:19:00,
2013-01-04 00:20:00,26.9,19.4,30.42,WSW,256,0.0,6.0,73,0.00,,,0.00,VWS V14.01,2013-01-04 05:20:00,
2013-01-04 00:24:00,27.0,19.8,30.42,WSW,256,3.0,6.0,74,0.00,,,0.00,VWS V14.01,2013-01-04 05:24:00,
2013-01-04 00:29:00,27.0,19.8,30.42,WSW,243,0.0,6.0,74,0.00,,,0.00,VWS V14.01,2013-01-04 05:29:00,
2013-01-04 00:30:00,27.0,19.8,30.42,WSW,243,1.0,6.0,74,0.00,,,0.00,VWS V14.01,2013-01-04 05:30:00,
2013-01-04 00:34:00,27.2,20.0,30.42,WSW,243,0.0,6.0,74,0.00,,,0.00,VWS V14.01,2013-01-04 05:34:00,
2013-01-04 00:39:00,27.3,20.1,30.42,WSW,246,0.0,6.0,74,0.00,,,0.00,VWS V14.01,2013-01-04 05:39:00,
2013-01-04 00:40:00,27.3,20.1,30.42,WSW,246,0.0,6.0,74,0.00,,,0.00,VWS V14.01,2013-01-04 05:40:00,
2013-01-04 00:44:00,27.6,20.4,30.42,WSW,257,1.0,6.0,74,0.00,,,0.00,VWS V14.01,2013-01-04 05:44:00,
2013-01-04 00:49:00,27.8,20.3,30.42,WSW,258,0.0,6.0,73,0.00,,,0.00,VWS V14.01,2013-01-04 05:49:00,
2013-01-04 00:50:00,27.8,20.3,30.42,WSW,258,0.0,6.0,73,0.00,,,0.00,VWS V14.01,2013-01-04 05:50:00,
2013-01-04 00:54:00,27.9,20.4,30.42,WSW,258,0.0,6.0,73,0.00,,,0.00,VWS V14.01,2013-01-04 05:54:00,
2013-01-04 00:59:00,28.1,20.6,30.42,West,259,0.0,6.0,73,0.00,,,0.00,VWS V14.01,2013-01-04 05:59:00,
2013-01-04 01:00:00,28.1,20.6,30.42,West,259,0.0,6.0,73,0.00,,,0.00,VWS V14.01,2013-01-04 06:00:00,
2013-01-04 01:04:00,28.1,20.6,30.42,WSW,258,1.0,6.0,73,0.00,,,0.00,VWS V14.01,2013-01-04 06:04:00,
2013-01-04 01:09:00,28.1,20.6,30.42,WSW,253,0.0,6.0,73,0.00,,,0.00,VWS V14.01,2013-01-04 06:09:00,
2013-01-04 01:10:00,28.1,20.6,30.42,WSW,253,2.0,6.0,73,0.00,,,0.00,VWS V14.01,2013-01-04 06:10:00,
2013-01-04 01:14:00,28.1,20.6,30.42,WSW,240,2.0,6.0,73,0.00,,,0.00,VWS V14.01,2013-01-04 06:14:00,
2013-01-04 01:19:00,28.2,20.7,30.42,WSW,241,1.0,6.0,73,0.00,,,0.00,VWS V14.01,2013-01-04 06:19:00,
2013-01-04 01:20:00,28.2,20.7,30.42,WSW,241,1.0,6.0,73,0.00,,,0.00,VWS V14.01,2013-01-04 06:20:00,
2013-01-04 01:24:00,28.2,20.7,30.42,WSW,241,0.0,6.0,73,0.00,,,0.00,VWS V14.01,2013-01-04 06:24:00,
2013-01-04 01:30:00,28.2,20.7,30.42,WSW,241,0.0,6.0,73,0.00,,,0.00,VWS V14.01,2013-01-04 06:30:00,
2013-01-04 01:34:00,28.2,20.7,30.42,WSW,241,0.0,6.0,73,0.00,,,0.00,VWS V14.01,2013-01-04 06:34:00,
2013-01-04 01:39:00,28.4,20.9,30.42,WSW,239,2.0,6.0,73,0.00,,,0.00,VWS V14.01,2013-01-04 06:39:00,
2013-01-04 01:40:00,28.4,20.9,30.42,WSW,239,2.0,6.0,73,0.00,,,0.00,VWS V14.01,2013-01-04 06:40:00,
2013-01-04 01:45:00,28.4,20.9,30.42,WSW,240,0.0,6.0,73,0.00,,,0.00,VWS V14.01,2013-01-04 06:45:00,
2013-01-04 01:50:00,28.4,20.9,30.42,West,260,0.0,6.0,73,0.00,,,0.00,VWS V14.01,2013-01-04 06:50:00,
2013-01-04 01:55:00,28.4,20.9,30.42,West,261,0.0,6.0,73,0.00,,,0.00,VWS V14.01,2013-01-04 06:55:00,
2013-01-04 02:00:00,28.4,20.9,30.41,West,260,0.0,6.0,73,0.00,,,0.00,VWS V14.01,2013-01-04 07:00:00,
2013-01-04 02:05:00,28.4,20.9,30.41,West,260,0.0,6.0,73,0.00,,,0.00,VWS V14.01,2013-01-04 07:05:00,
2013-01-04 02:10:00,28.4,20.9,30.41,West,263,0.0,6.0,73,0.00,,,0.00,VWS V14.01,2013-01-04 07:10:00,
2013-01-04 02:15:00,28.4,20.9,30.41,WSW,247,0.0,6.0,73,0.00,,,0.00,VWS V14.01,2013-01-04 07:15:00,
2013-01-04 02:20:00,28.5,21.0,30.41,WSW,248,0.0,6.0,73,0.00,,,0.00,VWS V14.01,2013-01-04 07:20:00,
2013-01-04 02:25:00,28.5,21.0,30.41,WSW,248,0.0,6.0,73,0.00,,,0.00,VWS V14.01,2013-01-04 07:25:00,
2013-01-04 02:30:00,28.5,21.0,30.41,WSW,248,1.0,6.0,73,0.00,,,0.00,VWS V14.01,2013-01-04 07:30:00,
2013-01-04 02:35:00,28.5,21.0,30.41,WSW,240,1.0,6.0,73,0.00,,,0.00,VWS V14.01,2013-01-04 07:35:00,
2013-01-04 02:40:00,28.5,21.0,30.41,WSW,240,0.0,6.0,73,0.00,,,0.00,VWS V14.01,2013-01-04 07:40:00,
2013-01-04 02:45:00,28.7,21.1,30.41,WSW,240,0.0,6.0,73,0.00,,,0.00,VWS V14.01,2013-01-04 07:45:00,
2013-01-04 02:50:00,28.7,21.1,30.41,WSW,247,1.0,6.0,73,0.00,,,0.00,VWS V14.01,2013-01-04 07:50:00,
2013-01-04 03:10:00,28.7,21.1,30.42,WSW,242,0.0,6.0,73,0.00,,,0.00,VWS V14.01,2013-01-04 08:10:00,
2013-01-04 03:15:00,28.8,21.2,30.42,WSW,243,2.0,6.0,73,0.00,,,0.00,VWS V14.01,2013-01-04 08:15:00,
2013-01-04 03:24:00,28.5,21.0,30.41,WSW,248,0.0,6.0,73,0.00,,,0.00,VWS V14.01,2013-01-04 08:24:00,
2013-01-04 03:25:00,29.0,21.1,30.42,WSW,248,2.0,6.0,72,0.00,,,0.00,VWS V14.01,2013-01-04 08:25:00,
2013-01-04 03:30:00,29.0,21.1,30.41,WSW,258,0.0,6.0,72,0.00,,,0.00,VWS V14.01,2013-01-04 08:30:00,
2013-01-04 03:40:00,29.0,21.1,30.41,WSW,254,2.0,6.0,72,0.00,,,0.00,VWS V14.01,2013-01-04 08:40:00,
2013-01-04 03:45:00,29.1,21.2,30.41,WSW,250,0.0,6.0,72,0.00,,,0.00,VWS V14.01,2013-01-04 08:45:00,
2013-01-04 03:50:00,29.1,21.2,30.41,West,268,2.0,6.0,72,0.00,,,0.00,VWS V14.01,2013-01-04 08:50:00,
2013-01-04 03:54:00,28.7,21.1,30.41,WSW,248,1.0,6.0,73,0.00,,,0.00,VWS V14.01,2013-01-04 08:54:00,
2013-01-04 03:59:00,28.7,21.1,30.41,SW,232,0.0,6.0,73,0.00,,,0.00,VWS V14.01,2013-01-04 08:59:00,
2013-01-04 04:04:00,28.7,21.1,30.42,WSW,247,1.0,6.0,73,0.00,,,0.00,VWS V14.01,2013-01-04 09:04:00,
2013-01-04 04:05:00,29.1,20.9,30.40,WSW,245,2.0,6.0,71,0.00,,,0.00,VWS V14.01,2013-01-04 09:05:00,
2013-01-04 04:09:00,28.7,21.1,30.42,WSW,252,2.0,6.0,73,0.00,,,0.00,VWS V14.01,2013-01-04 09:09:00,
2013-01-04 04:14:00,28.7,21.1,30.42,WSW,242,0.0,6.0,73,0.00,,,0.00,VWS V14.01,2013-01-04 09:14:00,
2013-01-04 04:24:00,28.8,21.2,30.42,SW,236,0.0,6.0,73,0.00,,,0.00,VWS V14.01,2013-01-04 09:24:00,
2013-01-04 04:30:00,29.3,21.4,30.41,West,271,2.0,6.0,72,0.00,,,0.00,VWS V14.01,2013-01-04 09:30:00,
2013-01-04 04:34:00,29.0,21.1,30.41,WSW,258,0.0,6.0,72,0.00,,,0.00,VWS V14.01,2013-01-04 09:34:00,
2013-01-04 04:35:00,29.3,21.4,30.41,West,260,1.0,6.0,72,0.00,,,0.00,VWS V14.01,2013-01-04 09:35:00,
2013-01-04 04:39:00,29.0,21.1,30.41,SW,234,3.0,6.0,72,0.00,,,0.00,VWS V14.01,2013-01-04 09:39:00,
2013-01-04 04:50:00,29.3,21.1,30.41,West,260,0.0,6.0,71,0.00,,,0.00,VWS V14.01,2013-01-04 09:50:00,
2013-01-04 04:54:00,29.1,21.2,30.41,West,259,5.0,6.0,72,0.00,,,0.00,VWS V14.01,2013-01-04 09:54:00,
2013-01-04 05:00:00,29.1,21.2,30.41,WSW,243,1.0,6.0,72,0.00,,,0.00,VWS V14.01,2013-01-04 10:00:00,
2013-01-04 05:05:00,29.1,21.2,30.40,West,271,2.0,6.0,72,0.00,,,0.00,VWS V14.01,2013-01-04 10:05:00,
2013-01-04 05:14:00,29.1,20.9,30.40,West,271,5.0,6.0,71,0.00,,,0.00,VWS V14.01,2013-01-04 10:14:00,
2013-01-04 05:20:00,29.1,20.9,30.40,WSW,254,1.0,6.0,71,0.00,,,0.00,VWS V14.01,2013-01-04 10:20:00,
2013-01-04 05:25:00,29.3,21.1,30.40,WSW,257,2.0,6.0,71,0.00,,,0.00,VWS V14.01,2013-01-04 10:25:00,
2013-01-04 05:30:00,29.3,21.1,30.40,WSW,257,0.0,6.0,71,0.00,,,0.00,VWS V14.01,2013-01-04 10:30:00,
2013-01-04 05:35:00,29.3,21.4,30.41,West,271,0.0,6.0,72,0.00,,,0.00,VWS V14.01,2013-01-04 10:35:00,
2013-01-04 05:44:00,29.3,21.4,30.41,WSW,244,0.0,6.0,72,0.00,,,0.00,VWS V14.01,2013-01-04 10:44:00,
2013-01-04 05:50:00,29.3,21.4,30.41,West,261,2.0,6.0,72,0.00,,,0.00,VWS V14.01,2013-01-04 10:50:00,
2013-01-04 05:55:00,29.3,21.1,30.41,West,259,2.0,6.0,71,0.00,,,0.00,VWS V14.01,2013-01-04 10:55:00,
2013-01-04 06:00:00,29.3,21.1,30.41,West,259,1.0,6.0,71,0.00,,,0.00,VWS V14.01,2013-01-04 11:00:00,
2013-01-04 06:05:00,29.3,21.1,30.41,WNW,300,0.0,6.0,71,0.00,,,0.00,VWS V14.01,2013-01-04 11:05:00,
2013-01-04 06:10:00,29.3,21.1,30.41,WNW,299,0.0,6.0,71,0.00,,,0.00,VWS V14.01,2013-01-04 11:10:00,
2013-01-04 06:15:00,29.3,21.1,30.41,WNW,299,0.0,6.0,71,0.00,,,0.00,VWS V14.01,2013-01-04 11:15:00,
2013-01-04 06:20:00,29.3,21.1,30.41,WNW,299,0.0,6.0,71,0.00,,,0.00,VWS V14.01,2013-01-04 11:20:00,
2013-01-04 06:25:00,29.3,21.4,30.41,WNW,299,1.0,6.0,72,0.00,,,0.00,VWS V14.01,2013-01-04 11:25:00,
2013-01-04 06:30:00,29.3,21.4,30.41,WNW,285,0.0,6.0,72,0.00,,,0.00,VWS V14.01,2013-01-04 11:30:00,
2013-01-04 06:35:00,29.3,21.4,30.42,WSW,249,0.0,6.0,72,0.00,,,0.00,VWS V14.01,2013-01-04 11:35:00,
2013-01-04 06:40:00,29.3,21.4,30.42,WSW,250,0.0,6.0,72,0.00,,,0.00,VWS V14.01,2013-01-04 11:40:00,
2013-01-04 06:45:00,29.3,21.4,30.42,West,267,1.0,6.0,72,0.00,,,0.00,VWS V14.01,2013-01-04 11:45:00,
2013-01-04 06:50:00,29.3,21.4,30.43,SW,232,0.0,6.0,72,0.00,,,0.00,VWS V14.01,2013-01-04 11:50:00,
2013-01-04 06:55:00,29.3,21.1,30.43,SW,226,0.0,6.0,71,0.00,,,0.00,VWS V14.01,2013-01-04 11:55:00,
2013-01-04 07:00:00,29.3,21.1,30.43,SW,226,0.0,6.0,71,0.00,,,0.00,VWS V14.01,2013-01-04 12:00:00,
2013-01-04 07:05:00,29.3,21.4,30.42,SW,226,2.0,6.0,72,0.00,,,0.00,VWS V14.01,2013-01-04 12:05:00,
2013-01-04 07:10:00,29.3,21.4,30.42,SW,229,0.0,6.0,72,0.00,,,0.00,VWS V14.01,2013-01-04 12:10:00,
2013-01-04 07:15:00,29.3,21.4,30.42,WSW,246,1.0,6.0,72,0.00,,,0.00,VWS V14.01,2013-01-04 12:15:00,
2013-01-04 07:20:00,29.3,21.4,30.42,WSW,245,2.0,6.0,72,0.00,,,0.00,VWS V14.01,2013-01-04 12:20:00,
2013-01-04 07:25:00,29.1,21.2,30.42,WSW,244,2.0,6.0,72,0.00,,,0.00,VWS V14.01,2013-01-04 12:25:00,
2013-01-04 07:30:00,29.1,21.2,30.42,WSW,241,2.0,6.0,72,0.00,,,0.00,VWS V14.01,2013-01-04 12:30:00,
2013-01-04 07:35:00,29.1,21.2,30.43,SW,222,0.0,6.0,72,0.00,,,0.00,VWS V14.01,2013-01-04 12:35:00,
2013-01-04 07:40:00,29.0,21.1,30.43,SW,231,1.0,6.0,72,0.00,,,0.00,VWS V14.01,2013-01-04 12:40:00,
2013-01-04 07:45:00,28.8,20.9,30.43,WSW,254,1.0,6.0,72,0.00,,,0.00,VWS V14.01,2013-01-04 12:45:00,
2013-01-04 07:50:00,28.8,21.2,30.42,WSW,254,0.0,6.0,73,0.00,,,0.00,VWS V14.01,2013-01-04 12:50:00,
2013-01-04 07:55:00,28.5,21.0,30.42,SSW,211,0.0,6.0,73,0.00,,,0.00,VWS V14.01,2013-01-04 12:55:00,
2013-01-04 08:00:00,28.4,20.9,30.42,SSW,211,0.0,6.0,73,0.00,,,0.00,VWS V14.01,2013-01-04 13:00:00,
2013-01-04 08:05:00,28.2,21.0,30.43,SSW,211,0.0,6.0,74,0.00,,,0.00,VWS V14.01,2013-01-04 13:05:00,
2013-01-04 08:10:00,28.1,20.9,30.43,SSW,211,0.0,6.0,74,0.00,,,0.00,VWS V14.01,2013-01-04 13:10:00,
2013-01-04 08:15:00,27.9,20.7,30.43,SSW,211,0.0,6.0,74,0.00,,,0.00,VWS V14.01,2013-01-04 13:15:00,
2013-01-04 08:20:00,27.8,20.9,30.43,SSW,211,0.0,6.0,75,0.00,,,0.00,VWS V14.01,2013-01-04 13:20:00,
2013-01-04 08:25:00,27.8,20.9,30.43,SSW,211,0.0,6.0,75,0.00,,,0.00,VWS V14.01,2013-01-04 13:25:00,
2013-01-04 08:30:00,27.6,20.7,30.43,SW,221,0.0,6.0,75,0.00,,,0.00,VWS V14.01,2013-01-04 13:30:00,
2013-01-04 08:35:00,27.6,21.0,30.43,SW,221,1.0,6.0,76,0.00,,,0.00,VWS V14.01,2013-01-04 13:35:00,
2013-01-04 08:40:00,27.8,21.2,30.43,SW,231,2.0,6.0,76,0.00,,,0.00,VWS V14.01,2013-01-04 13:40:00,
2013-01-04 08:45:00,27.8,20.9,30.43,SW,236,1.0,6.0,75,0.00,,,0.00,VWS V14.01,2013-01-04 13:45:00,
2013-01-04 08:50:00,27.9,21.0,30.44,SW,236,3.0,6.0,75,0.00,,,0.00,VWS V14.01,2013-01-04 13:50:00,
2013-01-04 08:55:00,28.1,21.2,30.44,SW,224,3.0,6.0,75,0.00,,,0.00,VWS V14.01,2013-01-04 13:55:00,
2013-01-04 09:00:00,28.1,21.2,30.44,WSW,238,2.0,6.0,75,0.00,,,0.00,VWS V14.01,2013-01-04 14:00:00,
2013-01-04 09:05:00,28.2,21.0,30.44,SW,227,3.0,6.0,74,0.00,,,0.00,VWS V14.01,2013-01-04 14:05:00,
2013-01-04 09:10:00,28.4,21.2,30.44,SW,223,3.0,6.0,74,0.00,,,0.00,VWS V14.01,2013-01-04 14:10:00,
2013-01-04 09:15:00,28.5,21.3,30.44,SW,221,1.0,6.0,74,0.00,,,0.00,VWS V14.01,2013-01-04 14:15:00,
2013-01-04 09:20:00,28.8,21.6,30.44,SW,232,4.0,6.0,74,0.00,,,0.00,VWS V14.01,2013-01-04 14:20:00,
2013-01-04 09:25:00,29.0,21.4,30.44,West,269,0.0,6.0,73,0.00,,,0.00,VWS V14.01,2013-01-04 14:25:00,
2013-01-04 09:30:00,29.1,21.5,30.44,West,260,3.0,6.0,73,0.00,,,0.00,VWS V14.01,2013-01-04 14:30:00,
2013-01-04 09:35:00,29.4,21.5,30.44,West,263,2.0,6.0,72,0.00,,,0.00,VWS V14.01,2013-01-04 14:35:00,
2013-01-04 09:40:00,29.5,21.6,30.44,SW,225,3.0,6.0,72,0.00,,,0.00,VWS V14.01,2013-01-04 14:40:00,
2013-01-04 09:45:00,29.8,21.6,30.44,SW,230,2.0,6.0,71,0.00,,,0.00,VWS V14.01,2013-01-04 14:45:00,
2013-01-04 09:50:00,30.0,21.8,30.44,West,259,2.0,6.0,71,0.00,,,0.00,VWS V14.01,2013-01-04 14:50:00,
2013-01-04 09:55:00,30.3,22.0,30.44,WSW,246,3.0,6.0,71,0.00,,,0.00,VWS V14.01,2013-01-04 14:55:00,
2013-01-04 10:00:00,30.4,21.8,30.44,SW,219,5.0,6.0,70,0.00,,,0.00,VWS V14.01,2013-01-04 15:00:00,
2013-01-04 10:05:00,30.7,22.1,30.45,SW,226,1.0,6.0,70,0.00,,,0.00,VWS V14.01,2013-01-04 15:05:00,
2013-01-04 10:10:00,30.9,21.9,30.45,SW,227,4.0,6.0,69,0.00,,,0.00,VWS V14.01,2013-01-04 15:10:00,
2013-01-04 10:15:00,31.3,22.0,30.45,SW,229,0.0,6.0,68,0.00,,,0.00,VWS V14.01,2013-01-04 15:15:00,
2013-01-04 10:20:00,31.8,22.5,30.45,SW,225,3.0,6.0,68,0.00,,,0.00,VWS V14.01,2013-01-04 15:20:00,
2013-01-04 10:25:00,32.1,22.4,30.45,WSW,257,6.0,6.0,67,0.00,,,0.00,VWS V14.01,2013-01-04 15:25:00,
2013-01-04 10:30:00,32.1,22.4,30.45,West,267,4.0,6.0,67,0.00,,,0.00,VWS V14.01,2013-01-04 15:30:00,
2013-01-04 10:36:00,32.4,22.3,30.45,WSW,252,5.0,6.0,66,0.00,,,0.00,VWS V14.01,2013-01-04 15:36:00,
2013-01-04 10:41:00,32.7,22.2,30.45,SW,227,7.0,7.0,65,0.00,,,0.00,VWS V14.01,2013-01-04 15:41:00,
2013-01-04 10:46:00,32.9,22.1,30.45,WSW,245,2.0,6.0,64,0.00,,,0.00,VWS V14.01,2013-01-04 15:46:00,
2013-01-04 10:51:00,33.2,22.0,30.46,WSW,238,6.0,6.0,63,0.00,,,0.00,VWS V14.01,2013-01-04 15:51:00,
2013-01-04 10:56:00,33.4,22.2,30.46,WSW,245,3.0,6.0,63,0.00,,,0.00,VWS V14.01,2013-01-04 15:56:00,
2013-01-04 11:01:00,33.7,22.8,30.46,West,259,4.0,6.0,64,0.00,,,0.00,VWS V14.01,2013-01-04 16:01:00,
2013-01-04 11:06:00,33.7,22.5,30.46,SW,225,2.0,6.0,63,0.00,,,0.00,VWS V14.01,2013-01-04 16:06:00,
2013-01-04 11:11:00,34.0,22.7,30.46,SW,231,4.0,6.0,63,0.00,,,0.00,VWS V14.01,2013-01-04 16:11:00,
2013-01-04 11:16:00,33.7,22.5,30.46,SW,230,5.0,6.0,63,0.00,,,0.00,VWS V14.01,2013-01-04 16:16:00,
2013-01-04 11:21:00,33.2,22.0,30.46,SW,226,6.0,6.0,63,0.00,,,0.00,VWS V14.01,2013-01-04 16:21:00,
2013-01-04 11:26:00,33.7,22.5,30.46,SW,229,4.0,6.0,63,0.00,,,0.00,VWS V14.01,2013-01-04 16:26:00,
2013-01-04 11:31:00,34.3,22.3,30.46,WSW,242,5.0,6.0,61,0.00,,,0.00,VWS V14.01,2013-01-04 16:31:00,
2013-01-04 11:36:00,34.4,22.0,30.46,SW,215,3.0,6.0,60,0.00,,,0.00,VWS V14.01,2013-01-04 16:36:00,
2013-01-04 11:41:00,34.6,22.2,30.46,SW,229,5.0,6.0,60,0.00,,,0.00,VWS V14.01,2013-01-04 16:41:00,
2013-01-04 11:46:00,35.0,22.1,30.46,SW,225,7.0,7.0,59,0.00,,,0.00,VWS V14.01,2013-01-04 16:46:00,
2013-01-04 11:51:00,35.2,22.3,30.45,WSW,242,4.0,6.0,59,0.00,,,0.00,VWS V14.01,2013-01-04 16:51:00,
2013-01-04 11:56:00,35.2,22.7,30.45,West,265,6.0,6.0,60,0.00,,,0.00,VWS V14.01,2013-01-04 16:56:00,
2013-01-04 12:01:00,35.5,23.0,30.45,SW,228,9.0,9.0,60,0.00,,,0.00,VWS V14.01,2013-01-04 17:01:00,
2013-01-04 12:06:00,35.3,22.0,30.45,WSW,256,8.0,8.0,58,0.00,,,0.00,VWS V14.01,2013-01-04 17:06:00,
2013-01-04 12:11:00,35.2,21.9,30.45,WSW,248,12.0,12.0,58,0.00,,,0.00,VWS V14.01,2013-01-04 17:11:00,
2013-01-04 12:16:00,35.3,22.0,30.45,WSW,248,6.0,6.0,58,0.00,,,0.00,VWS V14.01,2013-01-04 17:16:00,
2013-01-04 12:21:00,35.6,22.3,30.44,SW,221,7.0,7.0,58,0.00,,,0.00,VWS V14.01,2013-01-04 17:21:00,
2013-01-04 12:26:00,35.9,22.6,30.44,West,262,3.0,6.0,58,0.00,,,0.00,VWS V14.01,2013-01-04 17:26:00,
2013-01-04 12:31:00,35.9,22.2,30.44,WSW,244,4.0,6.0,57,0.00,,,0.00,VWS V14.01,2013-01-04 17:31:00,
2013-01-04 12:36:00,35.9,23.0,30.43,SSW,211,4.0,6.0,59,0.00,,,0.00,VWS V14.01,2013-01-04 17:36:00,
2013-01-04 12:41:00,36.9,23.5,30.43,WSW,242,7.0,7.0,58,0.00,,,0.00,VWS V14.01,2013-01-04 17:41:00,
2013-01-04 12:46:00,36.3,22.1,30.43,SW,236,8.0,8.0,56,0.00,,,0.00,VWS V14.01,2013-01-04 17:46:00,
2013-01-04 12:51:00,36.5,22.7,30.43,WSW,252,3.0,6.0,57,0.00,,,0.00,VWS V14.01,2013-01-04 17:51:00,
2013-01-04 12:56:00,36.8,23.4,30.43,West,261,6.0,6.0,58,0.00,,,0.00,VWS V14.01,2013-01-04 17:56:00,
2013-01-04 13:01:00,36.9,22.7,30.43,SW,215,3.0,6.0,56,0.00,,,0.00,VWS V14.01,2013-01-04 18:01:00,
2013-01-04 13:06:00,37.0,23.2,30.41,WSW,238,4.0,6.0,57,0.00,,,0.00,VWS V14.01,2013-01-04 18:06:00,
2013-01-04 13:11:00,37.3,22.6,30.41,SW,232,6.0,6.0,55,0.00,,,0.00,VWS V14.01,2013-01-04 18:11:00,
2013-01-04 13:16:00,36.9,22.3,30.41,SW,215,7.0,7.0,55,0.00,,,0.00,VWS V14.01,2013-01-04 18:16:00,
2013-01-04 13:21:00,36.8,22.6,30.41,WSW,257,5.0,6.0,56,0.00,,,0.00,VWS V14.01,2013-01-04 18:21:00,
2013-01-04 13:26:00,37.2,23.0,30.41,West,264,10.0,10.0,56,0.00,,,0.00,VWS V14.01,2013-01-04 18:26:00,
2013-01-04 13:31:00,37.0,22.8,30.41,WSW,256,6.0,6.0,56,0.00,,,0.00,VWS V14.01,2013-01-04 18:31:00,
2013-01-04 13:36:00,37.2,23.0,30.41,West,261,4.0,6.0,56,0.00,,,0.00,VWS V14.01,2013-01-04 18:36:00,
2013-01-04 13:41:00,37.2,23.8,30.41,SW,224,5.0,6.0,58,0.00,,,0.00,VWS V14.01,2013-01-04 18:41:00,
2013-01-04 13:46:00,37.6,22.5,30.41,WSW,242,5.0,6.0,54,0.00,,,0.00,VWS V14.01,2013-01-04 18:46:00,
2013-01-04 13:51:00,37.3,22.6,30.40,WSW,252,9.0,9.0,55,0.00,,,0.00,VWS V14.01,2013-01-04 18:51:00,
2013-01-04 13:56:00,37.3,23.1,30.40,WSW,248,7.0,7.0,56,0.00,,,0.00,VWS V14.01,2013-01-04 18:56:00,
2013-01-04 14:01:00,37.9,23.2,30.40,WNW,286,5.0,6.0,55,0.00,,,0.00,VWS V14.01,2013-01-04 19:01:00,
2013-01-04 14:06:00,38.0,23.3,30.40,West,261,12.0,12.0,55,0.00,,,0.00,VWS V14.01,2013-01-04 19:06:00,
2013-01-04 14:11:00,37.2,23.0,30.40,WNW,302,5.0,6.0,56,0.00,,,0.00,VWS V14.01,2013-01-04 19:11:00,
2013-01-04 14:16:00,36.8,22.6,30.40,West,265,8.0,8.0,56,0.00,,,0.00,VWS V14.01,2013-01-04 19:16:00,
2013-01-04 14:21:00,36.6,22.8,30.41,SW,214,5.0,6.0,57,0.00,,,0.00,VWS V14.01,2013-01-04 19:21:00,
2013-01-04 14:26:00,36.8,22.6,30.41,West,264,4.0,6.0,56,0.00,,,0.00,VWS V14.01,2013-01-04 19:26:00,
2013-01-04 14:31:00,36.8,22.6,30.41,WSW,252,6.0,6.0,56,0.00,,,0.00,VWS V14.01,2013-01-04 19:31:00,
2013-01-04 14:36:00,36.9,22.7,30.40,WSW,246,5.0,6.0,56,0.00,,,0.00,VWS V14.01,2013-01-04 19:36:00,
2013-01-04 14:41:00,37.5,23.2,30.40,SW,227,2.0,6.0,56,0.00,,,0.00,VWS V14.01,2013-01-04 19:41:00,
2013-01-04 14:46:00,37.2,23.0,30.40,WSW,239,5.0,6.0,56,0.00,,,0.00,VWS V14.01,2013-01-04 19:46:00,
2013-01-04 14:51:00,36.8,22.6,30.40,WSW,248,3.0,6.0,56,0.00,,,0.00,VWS V14.01,2013-01-04 19:51:00,
2013-01-04 14:56:00,36.8,22.6,30.40,West,271,6.0,6.0,56,0.00,,,0.00,VWS V14.01,2013-01-04 19:56:00,
2013-01-04 15:01:00,36.6,22.4,30.40,SW,216,9.0,9.0,56,0.00,,,0.00,VWS V14.01,2013-01-04 20:01:00,
2013-01-04 15:06:00,36.6,22.8,30.40,WNW,284,7.0,7.0,57,0.00,,,0.00,VWS V14.01,2013-01-04 20:06:00,
2013-01-04 15:11:00,36.6,22.8,30.40,West,276,5.0,6.0,57,0.00,,,0.00,VWS V14.01,2013-01-04 20:11:00,
2013-01-04 15:16:00,36.5,22.7,30.40,West,276,6.0,6.0,57,0.00,,,0.00,VWS V14.01,2013-01-04 20:16:00,
2013-01-04 15:21:00,36.5,23.1,30.41,NW,316,7.0,7.0,58,0.00,,,0.00,VWS V14.01,2013-01-04 20:21:00,
2013-01-04 15:26:00,36.5,23.1,30.41,West,269,4.0,6.0,58,0.00,,,0.00,VWS V14.01,2013-01-04 20:26:00,
2013-01-04 15:31:00,36.3,23.0,30.41,West,275,2.0,6.0,58,0.00,,,0.00,VWS V14.01,2013-01-04 20:31:00,
2013-01-04 15:36:00,36.2,22.5,30.41,West,279,3.0,6.0,57,0.00,,,0.00,VWS V14.01,2013-01-04 20:36:00,
2013-01-04 15:41:00,36.2,22.5,30.41,West,262,4.0,6.0,57,0.00,,,0.00,VWS V14.01,2013-01-04 20:41:00,
2013-01-04 15:46:00,36.0,22.3,30.41,WSW,248,4.0,6.0,57,0.00,,,0.00,VWS V14.01,2013-01-04 20:46:00,
2013-01-04 15:51:00,36.0,22.7,30.42,WSW,244,2.0,6.0,58,0.00,,,0.00,VWS V14.01,2013-01-04 20:51:00,
2013-01-04 15:56:00,36.2,22.9,30.42,West,275,7.0,7.0,58,0.00,,,0.00,VWS V14.01,2013-01-04 20:56:00,
2013-01-04 16:01:00,36.0,23.1,30.42,WSW,254,6.0,6.0,59,0.00,,,0.00,VWS V14.01,2013-01-04 21:01:00,
2013-01-04 16:06:00,36.0,23.1,30.42,SW,224,3.0,6.0,59,0.00,,,0.00,VWS V14.01,2013-01-04 21:06:00,
2013-01-04 16:11:00,36.2,22.9,30.42,West,267,5.0,6.0,58,0.00,,,0.00,VWS V14.01,2013-01-04 21:11:00,
2013-01-04 16:16:00,36.5,23.5,30.42,West,279,3.0,6.0,59,0.00,,,0.00,VWS V14.01,2013-01-04 21:16:00,
2013-01-04 16:21:00,36.5,23.5,30.43,WSW,246,2.0,6.0,59,0.00,,,0.00,VWS V14.01,2013-01-04 21:21:00,
2013-01-04 16:26:00,36.3,23.4,30.43,West,279,5.0,6.0,59,0.00,,,0.00,VWS V14.01,2013-01-04 21:26:00,
2013-01-04 16:31:00,36.0,23.1,30.43,SW,225,8.0,8.0,59,0.00,,,0.00,VWS V14.01,2013-01-04 21:31:00,
2013-01-04 16:36:00,35.9,23.0,30.43,West,272,1.0,6.0,59,0.00,,,0.00,VWS V14.01,2013-01-04 21:36:00,
2013-01-04 16:41:00,36.0,23.1,30.43,West,267,0.0,6.0,59,0.00,,,0.00,VWS V14.01,2013-01-04 21:41:00,
2013-01-04 16:47:00,36.2,23.3,30.43,West,263,2.0,6.0,59,0.00,,,0.00,VWS V14.01,2013-01-04 21:47:00,
2013-01-04 16:52:00,36.3,23.4,30.42,SW,228,2.0,6.0,59,0.00,,,0.00,VWS V14.01,2013-01-04 21:52:00,
2013-01-04 16:57:00,36.5,23.5,30.42,WSW,242,7.0,7.0,59,0.00,,,0.00,VWS V14.01,2013-01-04 21:57:00,
2013-01-04 17:02:00,36.3,22.5,30.42,WSW,252,3.0,6.0,57,0.00,,,0.00,VWS V14.01,2013-01-04 22:02:00,
2013-01-04 17:07:00,36.2,22.0,30.43,SW,220,4.0,6.0,56,0.00,,,0.00,VWS V14.01,2013-01-04 22:07:00,
2013-01-04 17:12:00,36.0,21.8,30.43,WSW,254,4.0,6.0,56,0.00,,,0.00,VWS V14.01,2013-01-04 22:12:00,
2013-01-04 17:17:00,35.9,21.8,30.43,WNW,286,5.0,6.0,56,0.00,,,0.00,VWS V14.01,2013-01-04 22:17:00,
2013-01-04 17:22:00,35.8,21.6,30.43,West,272,8.0,8.0,56,0.00,,,0.00,VWS V14.01,2013-01-04 22:22:00,
2013-01-04 17:27:00,35.5,21.8,30.43,WSW,240,5.0,6.0,57,0.00,,,0.00,VWS V14.01,2013-01-04 22:27:00,
2013-01-04 17:32:00,35.3,21.6,30.43,West,265,3.0,6.0,57,0.00,,,0.00,VWS V14.01,2013-01-04 22:32:00,
2013-01-04 17:37:00,35.0,21.7,30.43,West,260,1.0,6.0,58,0.00,,,0.00,VWS V14.01,2013-01-04 22:37:00,
2013-01-04 17:42:00,34.9,22.0,30.43,WSW,257,2.0,6.0,59,0.00,,,0.00,VWS V14.01,2013-01-04 22:42:00,
2013-01-04 17:47:00,34.6,21.8,30.43,WSW,257,0.0,6.0,59,0.00,,,0.00,VWS V14.01,2013-01-04 22:47:00,
2013-01-04 17:52:00,34.3,21.9,30.43,WSW,254,1.0,6.0,60,0.00,,,0.00,VWS V14.01,2013-01-04 22:52:00,
2013-01-04 17:57:00,34.1,21.7,30.43,WSW,254,0.0,6.0,60,0.00,,,0.00,VWS V14.01,2013-01-04 22:57:00,
2013-01-04 18:02:00,34.0,22.0,30.43,SW,234,3.0,6.0,61,0.00,,,0.00,VWS V14.01,2013-01-04 23:02:00,
2013-01-04 18:07:00,33.8,21.8,30.43,SW,231,2.0,6.0,61,0.00,,,0.00,VWS V14.01,2013-01-04 23:07:00,
2013-01-04 18:12:00,33.8,21.8,30.43,SW,231,0.0,6.0,61,0.00,,,0.00,VWS V14.01,2013-01-04 23:12:00,
2013-01-04 18:17:00,33.7,21.7,30.43,SW,232,1.0,6.0,61,0.00,,,0.00,VWS V14.01,2013-01-04 23:17:00,
2013-01-04 18:22:00,33.5,21.5,30.42,SW,232,0.0,6.0,61,0.00,,,0.00,VWS V14.01,2013-01-04 23:22:00,
2013-01-04 18:27:00,33.4,21.8,30.42,SW,228,0.0,6.0,62,0.00,,,0.00,VWS V14.01,2013-01-04 23:27:00,
2013-01-04 18:32:00,33.2,21.6,30.42,SW,228,0.0,6.0,62,0.00,,,0.00,VWS V14.01,2013-01-04 23:32:00,
2013-01-04 18:37:00,32.9,21.3,30.43,SW,228,0.0,6.0,62,0.00,,,0.00,VWS V14.01,2013-01-04 23:37:00,
2013-01-04 18:42:00,32.8,21.6,30.43,SW,228,1.0,6.0,63,0.00,,,0.00,VWS V14.01,2013-01-04 23:42:00,
2013-01-04 18:47:00,32.5,21.7,30.43,SW,228,0.0,6.0,64,0.00,,,0.00,VWS V14.01,2013-01-04 23:47:00,
2013-01-04 18:52:00,32.4,21.6,30.43,SW,228,0.0,6.0,64,0.00,,,0.00,VWS V14.01,2013-01-04 23:52:00,
2013-01-04 18:57:00,32.4,21.6,30.43,SW,228,0.0,6.0,64,0.00,,,0.00,VWS V14.01,2013-01-04 23:57:00,
2013-01-04 19:02:00,32.2,21.8,30.43,SW,228,0.0,6.0,65,0.00,,,0.00,VWS V14.01,2013-01-05 00:02:00,
2013-01-04 19:07:00,31.9,21.5,30.43,SW,228,0.0,6.0,65,0.00,,,0.00,VWS V14.01,2013-01-05 00:07:00,
2013-01-04 19:12:00,31.8,21.8,30.43,SW,228,0.0,6.0,66,0.00,,,0.00,VWS V14.01,2013-01-05 00:12:00,
2013-01-04 19:17:00,31.5,21.5,30.43,SW,228,0.0,6.0,66,0.00,,,0.00,VWS V14.01,2013-01-05 00:17:00,
2013-01-04 19:22:00,31.2,21.5,30.43,SW,228,0.0,6.0,67,0.00,,,0.00,VWS V14.01,2013-01-05 00:22:00,
2013-01-04 19:27:00,31.0,21.3,30.43,SW,228,0.0,6.0,67,0.00,,,0.00,VWS V14.01,2013-01-05 00:27:00,
2013-01-04 19:32:00,30.9,21.6,30.43,SW,228,0.0,6.0,68,0.00,,,0.00,VWS V14.01,2013-01-05 00:32:00,
2013-01-04 19:37:00,30.6,21.3,30.43,SW,228,0.0,6.0,68,0.00,,,0.00,VWS V14.01,2013-01-05 00:37:00,
2013-01-04 19:42:00,30.6,21.6,30.43,SW,228,0.0,6.0,69,0.00,,,0.00,VWS V14.01,2013-01-05 00:42:00,
2013-01-04 19:47:00,30.4,21.5,30.43,SW,228,0.0,6.0,69,0.00,,,0.00,VWS V14.01,2013-01-05 00:47:00,
2013-01-04 19:52:00,30.4,21.5,30.43,SW,228,0.0,6.0,69,0.00,,,0.00,VWS V14.01,2013-01-05 00:52:00,
2013-01-04 19:57:00,30.3,21.7,30.43,SW,228,0.0,6.0,70,0.00,,,0.00,VWS V14.01,2013-01-05 00:57:00,
2013-01-04 20:02:00,30.3,21.7,30.43,SW,228,0.0,6.0,70,0.00,,,0.00,VWS V14.01,2013-01-05 01:02:00,
2013-01-04 20:07:00,30.3,21.7,30.43,SW,228,1.0,6.0,70,0.00,,,0.00,VWS V14.01,2013-01-05 01:07:00,
2013-01-04 20:12:00,30.1,21.5,30.43,SW,228,0.0,6.0,70,0.00,,,0.00,VWS V14.01,2013-01-05 01:12:00,
2013-01-04 20:17:00,30.1,21.5,30.43,SW,228,0.0,6.0,70,0.00,,,0.00,VWS V14.01,2013-01-05 01:17:00,
2013-01-04 20:22:00,30.0,21.4,30.43,SW,228,0.0,6.0,70,0.00,,,0.00,VWS V14.01,2013-01-05 01:22:00,
2013-01-04 20:27:00,30.0,21.4,30.43,SW,228,0.0,6.0,70,0.00,,,0.00,VWS V14.01,2013-01-05 01:27:00,
2013-01-04 20:32:00,30.0,21.4,30.43,SW,228,0.0,6.0,70,0.00,,,0.00,VWS V14.01,2013-01-05 01:32:00,
2013-01-04 20:37:00,29.8,21.2,30.43,SW,228,0.0,6.0,70,0.00,,,0.00,VWS V14.01,2013-01-05 01:37:00,
2013-01-04 20:42:00,29.8,21.2,30.43,SW,228,0.0,6.0,70,0.00,,,0.00,VWS V14.01,2013-01-05 01:42:00,
2013-01-04 20:47:00,29.8,21.6,30.43,SW,228,0.0,6.0,71,0.00,,,0.00,VWS V14.01,2013-01-05 01:47:00,
2013-01-04 20:52:00,29.8,21.6,30.43,SW,228,0.0,6.0,71,0.00,,,0.00,VWS V14.01,2013-01-05 01:52:00,
2013-01-04 20:57:00,29.7,21.5,30.43,SW,228,0.0,6.0,71,0.00,,,0.00,VWS V14.01,2013-01-05 01:57:00,
2013-01-04 21:02:00,29.7,21.5,30.43,SW,228,0.0,6.0,71,0.00,,,0.00,VWS V14.01,2013-01-05 02:02:00,
2013-01-04 21:07:00,29.5,21.3,30.43,SW,228,0.0,6.0,71,0.00,,,0.00,VWS V14.01,2013-01-05 02:07:00,
2013-01-04 21:13:00,29.5,21.3,30.43,SW,228,0.0,6.0,71,0.00,,,0.00,VWS V14.01,2013-01-05 02:13:00,
2013-01-04 21:18:00,29.4,21.2,30.43,SW,228,0.0,6.0,71,0.00,,,0.00,VWS V14.01,2013-01-05 02:18:00,
2013-01-04 21:23:00,29.4,21.2,30.43,SW,228,0.0,6.0,71,0.00,,,0.00,VWS V14.01,2013-01-05 02:23:00,
2013-01-04 21:28:00,29.4,21.2,30.43,SW,228,0.0,6.0,71,0.00,,,0.00,VWS V14.01,2013-01-05 02:28:00,
2013-01-04 21:33:00,29.3,21.4,30.43,SW,228,0.0,6.0,72,0.00,,,0.00,VWS V14.01,2013-01-05 02:33:00,
2013-01-04 21:38:00,29.3,21.4,30.43,SW,228,0.0,6.0,72,0.00,,,0.00,VWS V14.01,2013-01-05 02:38:00,
2013-01-04 21:43:00,29.1,21.2,30.43,SW,228,0.0,6.0,72,0.00,,,0.00,VWS V14.01,2013-01-05 02:43:00,
2013-01-04 21:48:00,29.1,21.2,30.43,SW,228,1.0,6.0,72,0.00,,,0.00,VWS V14.01,2013-01-05 02:48:00,
2013-01-04 21:53:00,29.3,21.4,30.43,SW,235,1.0,6.0,72,0.00,,,0.00,VWS V14.01,2013-01-05 02:53:00,
2013-01-04 21:58:00,29.3,21.1,30.43,WSW,242,3.0,6.0,71,0.00,,,0.00,VWS V14.01,2013-01-05 02:58:00,
2013-01-04 22:03:00,29.4,21.2,30.43,WSW,240,1.0,6.0,71,0.00,,,0.00,VWS V14.01,2013-01-05 03:03:00,
2013-01-04 22:08:00,29.5,21.3,30.44,WSW,243,1.0,6.0,71,0.00,,,0.00,VWS V14.01,2013-01-05 03:08:00,
2013-01-04 22:13:00,29.5,21.3,30.44,WSW,240,0.0,6.0,71,0.00,,,0.00,VWS V14.01,2013-01-05 03:13:00,
2013-01-04 22:18:00,29.4,21.2,30.44,WSW,240,0.0,6.0,71,0.00,,,0.00,VWS V14.01,2013-01-05 03:18:00,
2013-01-04 22:23:00,29.4,21.2,30.43,WSW,240,0.0,6.0,71,0.00,,,0.00,VWS V14.01,2013-01-05 03:23:00,
2013-01-04 22:28:00,29.3,21.1,30.43,WSW,240,0.0,6.0,71,0.00,,,0.00,VWS V14.01,2013-01-05 03:28:00,
2013-01-04 22:33:00,29.1,20.9,30.43,WSW,240,0.0,6.0,71,0.00,,,0.00,VWS V14.01,2013-01-05 03:33:00,
2013-01-04 22:38:00,29.1,21.2,30.44,WSW,240,0.0,6.0,72,0.00,,,0.00,VWS V14.01,2013-01-05 03:38:00,
2013-01-04 22:43:00,29.0,21.1,30.44,WSW,240,0.0,6.0,72,0.00,,,0.00,VWS V14.01,2013-01-05 03:43:00,
2013-01-04 22:48:00,29.0,21.1,30.44,WSW,240,0.0,6.0,72,0.00,,,0.00,VWS V14.01,2013-01-05 03:48:00,
2013-01-04 22:53:00,28.8,20.9,30.43,WSW,240,0.0,6.0,72,0.00,,,0.00,VWS V14.01,2013-01-05 03:53:00,
2013-01-04 22:58:00,28.8,20.9,30.43,WSW,240,0.0,6.0,72,0.00,,,0.00,VWS V14.01,2013-01-05 03:58:00,
2013-01-04 23:00:00,28.1,20.9,30.44,WSW,240,0.0,6.0,74,0.00,,,0.00,VWS V14.01,2013-01-05 04:00:00,
2013-01-04 23:03:00,28.8,21.2,30.43,WSW,240,0.0,6.0,73,0.00,,,0.00,VWS V14.01,2013-01-05 04:03:00,
2013-01-04 23:08:00,28.7,21.1,30.44,WSW,240,0.0,6.0,73,0.00,,,0.00,VWS V14.01,2013-01-05 04:08:00,
2013-01-04 23:10:00,28.1,21.2,30.44,WSW,240,0.0,6.0,75,0.00,,,0.00,VWS V14.01,2013-01-05 04:10:00,
2013-01-04 23:13:00,28.7,21.1,30.44,WSW,240,0.0,6.0,73,0.00,,,0.00,VWS V14.01,2013-01-05 04:13:00,
2013-01-04 23:18:00,28.7,21.1,30.44,WSW,240,0.0,6.0,73,0.00,,,0.00,VWS V14.01,2013-01-05 04:18:00,
2013-01-04 23:20:00,27.9,21.0,30.43,WSW,240,0.0,6.0,75,0.00,,,0.00,VWS V14.01,2013-01-05 04:20:00,
2013-01-04 23:23:00,28.5,21.0,30.44,WSW,240,0.0,6.0,73,0.00,,,0.00,VWS V14.01,2013-01-05 04:23:00,
2013-01-04 23:28:00,28.5,21.3,30.44,WSW,240,0.0,6.0,74,0.00,,,0.00,VWS V14.01,2013-01-05 04:28:00,
2013-01-04 23:30:00,27.8,20.9,30.43,WSW,240,0.0,6.0,75,0.00,,,0.00,VWS V14.01,2013-01-05 04:30:00,
2013-01-04 23:33:00,28.4,21.2,30.44,WSW,240,0.0,6.0,74,0.00,,,0.00,VWS V14.01,2013-01-05 04:33:00,
2013-01-04 23:38:00,28.4,21.2,30.44,WSW,240,0.0,6.0,74,0.00,,,0.00,VWS V14.01,2013-01-05 04:38:00,
2013-01-04 23:40:00,27.6,21.0,30.43,WSW,240,0.0,6.0,76,0.00,,,0.00,VWS V14.01,2013-01-05 04:40:00,
2013-01-04 23:43:00,28.2,21.0,30.44,WSW,240,0.0,6.0,74,0.00,,,0.00,VWS V14.01,2013-01-05 04:43:00,
2013-01-04 23:48:00,28.2,21.0,30.44,WSW,240,0.0,6.0,74,0.00,,,0.00,VWS V14.01,2013-01-05 04:48:00,
2013-01-04 23:50:00,27.6,21.0,30.43,WSW,240,0.0,6.0,76,0.00,,,0.00,VWS V14.01,2013-01-05 04:50:00,
2013-01-04 23:53:00,28.2,21.0,30.44,WSW,240,0.0,6.0,74,0.00,,,0.00,VWS V14.01,2013-01-05 04:53:00,
2013-01-04 23:58:00,28.1,20.9,30.44,WSW,240,0.0,6.0,74,0.00,,,0.00,VWS V14.01,2013-01-05 04:58:00,
2013-01-04 23:59:00,27.8,21.2,30.43,WSW,240,0.0,6.0,76,0.00,,,0.00,VWS V14.01,2013-01-05 04:59:00,